Regional Weather Roundup
Issued by NWS

Home | Current Version | Previous Version | Text Only | Print | Product List | Glossary Off
Versions: 1 2 3 4 5 6 7 8 9 10 11 12 13 14 15 16 17 18 19 20 21 22 23 24 25 26 27 28 29 30 31 32 33 34 35 36 37 38 39 40 41 42 43 44 45 46 47 48 49 50

738
ASUS45 KSLC 051910
RWRUT

UTAH REGIONAL WEATHER ROUNDUP
NATIONAL WEATHER SERVICE SALT LAKE CITY UT
1200 PM MST FRI FEB 05 2016

UTZ001>011-023>025-052000-

NORTHERN UTAH

CITY           SKY/WX    TMP DP  RH WIND       PRES   REMARKS
BRIGHAM CITY   CLOUDY    31  25  79 CALM      30.59S
HILL AFB       PTSUNNY   32  22  66 SW5       30.55S WCI  27
LOGAN          CLOUDY    29  25  85 CALM      30.57S FOG
OGDEN          PTSUNNY   32  27  81 N5        30.57R HAZE    WCI  27
PROVO AIRPORT  PTSUNNY   25  19  80 CALM      30.59F
SALT LAKE CITY PTSUNNY   33  25  72 S7        30.57F WCI  27
VERNAL         CLOUDY    16   9  74 CALM      30.55F
WENDOVER       PTSUNNY   30  21  69 SE3       30.57F
HEBER CITY     CLOUDY    27  21  80 CALM      30.52F HAZE
WEST JORDAN    CLOUDY    30  27  86 S10       30.56F WCI  21

$$

UTZ012>022-026-027-052000-

SOUTHERN/CENTRAL UTAH

CITY           SKY/WX    TMP DP  RH WIND       PRES   REMARKS
BLANDING       SUNNY     27  17  66 CALM      30.55F
BRYCE CANYON   SUNNY     25  15  66 NE13      30.47S WCI  14
CEDAR CITY     MOSUNNY   28  18  66 CALM      30.51S
DELTA          SUNNY     19  18  96 CALM      30.58F
HANKSVILLE     CLOUDY    19  18  93 W5        30.64F WCI  13
MILFORD        MOSUNNY   13   8  81 S7        30.57S WCI   3
MOAB/CYNLANDS  CLOUDY    19  15  84 VRB3      30.60S
PRICE          SUNNY     15  10  80 E5        30.49F WCI   8
ST GEORGE      CLEAR     45  23  42 CALM      30.55F
KANAB          SUNNY     45  21  39 NE10      30.53F

$$

REGIONAL REPORTS     COLORADO/ARIZONA

CITY           SKY/WX    TMP DP  RH WIND       PRES   REMARKS
CRAIG, CO      PTSUNNY   18  14  84 CALM      30.47F
GRAND JUNCTION SUNNY     21  14  74 E6        30.57F WCI  13
RIFLE          SUNNY     19  12  74 CALM      30.53F
MONTROSE       SUNNY     22  11  62 CALM      30.55F
CORTEZ         SUNNY     31  15  52 NW9       30.44S WCI  23
PAGE, AZ       SUNNY     36  23  59 CALM      30.54F
GRAND CANYON   SUNNY     33  14  45 NE14G25   30.48R WCI  23
KINGMAN        SUNNY     50  22  33 N15       30.45F
FLAGSTAFF      SUNNY     30  13  49 NE21G33   30.42R WCI  17

$$

REGIONAL REPORTS    NEVADA/IDAHO/WYOMING

CITY           SKY/WX    TMP DP  RH WIND       PRES   REMARKS
LAS VEGAS, NV  MOSUNNY   54  21  27 NE5       30.49F
ELY            SUNNY     16  11  80 S6        30.53F WCI   7
ELKO           SUNNY     21  16  81 W3        30.56F
POCATELLO, ID  CLOUDY    23  19  85 NE6       30.55F WCI  16
BURLEY         CLOUDY    33  26  75 NE6       30.51F WCI  28
EVANSTON, WY   CLOUDY    24  17  74 SW10      30.45F WCI  14
ROCK SPRINGS   MOSUNNY   23  15  71 W21       30.39F WCI   8

$$




USA.gov is the U.S. government's official web portal to all federal, state and local government web resources and services.